User: anonymous   Login
Location: Mentone
(34.5413°N, 85.5351°W)
Time: 09:30:00
(UTC-06:00)
Language:

ATLAS 5 CENTAUR R/B - Orbit

View from above orbital plane
View from above orbital plane
View from above satellite
View from above satellite

Ground track
Ground track

The orbit data is extracted from the following two-line orbital elements,

1 31702U 07027B   15018.77855475 0.00000450  00000-0  18846-3 0    04
2 31702  63.3770 266.2414 0171000 352.8959   7.1041 14.18278569    00
Epoch (UTC): 18 January 2015 18:41:07
Eccentricity: 0.0171000
inclination: 63.3770°
perigee height: 708 km
apogee height: 954 km
right ascension of ascending node: 266.2414°
argument of perigee: 352.8959°
revolutions per day: 14.18278569
mean anomaly at epoch: 7.1041°
orbit number at epoch: 0

The dashed part of the orbit path shows where the satellite is in the earth's shadow,  

DLR